Frenchville, ME

8:28 PM EDT on April 23, 2018 (GMT -0400)
Northern Aroostook Regional

Weather History for KFVE - October, 2013

Change the Weather History Date:

Sunday, October 20, 2013

  Actual Average Record
Temperature  
Mean Temperature 44 °F 40 °F  
Max Temperature 49 °F 48 °F 63 °F (2007)
Min Temperature 39 °F 33 °F 24 °F (2008)
Degree Days  
Heating Degree Days 21    
Month to date heating degree days 290  
Since 1 July heating degree days 746  
Cooling Degree Days 0    
Month to date cooling degree days 0  
Year to date cooling degree days 139  
Moisture  
Dew Point 41 °F    
Average Humidity 87    
Maximum Humidity 100    
Minimum Humidity 59    
Precipitation  
Precipitation 0.25 in 0.08 in 0.94 in (2006)
Month to date precipitation 1.27 1.68  
Year to date precipitation 29.68 27.26  
Sea Level Pressure  
Sea Level Pressure 29.63 in    
Wind  
Wind Speed 10 mph (South)    
Max Wind Speed 20 mph    
Max Gust Speed 26 mph    
Visibility 8 miles    
Events Rain    
T = Trace of Precipitation, MM = Missing Value Source: NWS Daily Summary

Daily Weather History Graph

Daily Weather History Graph

Search for Another Location

Airport or City:

Astronomy

Oct. 20, 2013 Rise Set
Actual Time 6:59 AM EDT 5:36 PM EDT
Civil Twilight 6:27 AM EDT 6:07 PM EDT
Nautical Twilight 5:52 AM EDT 6:42 PM EDT
Astronomical Twilight 5:16 AM EDT 7:18 PM EDT
Moon 6:34 PM EDT (10/20) 8:40 AM EDT (10/20)
Length of Visible Light 11h 39m
Length of Day
10h 36m
Full, 97% of the Moon is Illuminated
Oct 20
Full
Oct 26
Last Quarter
Nov 3
New
Nov 10
First Quarter
Nov 17
Full

Hourly Weather History & Observations

Time (EDT) Temp. Windchill Dew Point Humidity Pressure Visibility Wind Dir Wind Speed Gust Speed Precip Events Conditions
12:53 AM 46.9 °F - 41.0 °F 80% 29.73 in 10.0 mi SSE 4.6 mph - 0.00 in Rain Light Rain
1:53 AM 46.0 °F 43.1 °F 41.0 °F 83% 29.73 in 10.0 mi SE 5.8 mph - 0.00 in Rain Light Rain
2:53 AM 45.0 °F 42.6 °F 42.1 °F 90% 29.70 in 10.0 mi East 4.6 mph - 0.03 in   Overcast
3:53 AM 44.1 °F 40.8 °F 42.1 °F 93% 29.68 in 10.0 mi East 5.8 mph - 0.01 in   Overcast
4:53 AM 44.1 °F 39.5 °F 42.1 °F 93% 29.66 in 10.0 mi East 8.1 mph - 0.00 in   Overcast
5:53 AM 44.1 °F 38.6 °F 42.1 °F 93% 29.63 in 10.0 mi East 10.4 mph - 0.01 in Rain Light Rain
6:40 AM 44.6 °F 39.7 °F 42.8 °F 93% 29.62 in 10.0 mi ESE 9.2 mph - 0.01 in Rain Light Rain
6:53 AM 44.1 °F 38.1 °F 42.1 °F 93% 29.63 in 7.0 mi SE 11.5 mph - 0.02 in Rain Light Rain
7:01 AM 44.6 °F 38.8 °F 42.8 °F 93% 29.61 in 6.0 mi SE 11.5 mph - 0.01 in Rain Light Rain
7:08 AM 44.6 °F 38.8 °F 42.8 °F 93% 29.61 in 7.0 mi SE 11.5 mph - 0.01 in Rain Light Rain
7:50 AM 44.6 °F 38.8 °F 42.8 °F 93% 29.60 in 4.0 mi SE 11.5 mph - 0.05 in Rain Light Rain
7:53 AM 45.0 °F 38.9 °F 43.0 °F 93% 29.61 in 4.0 mi SE 12.7 mph - 0.05 in Rain Light Rain
8:33 AM 44.6 °F 38.1 °F 44.6 °F 100% 29.59 in 4.0 mi SSE 13.8 mph - 0.00 in Rain Light Rain
8:50 AM 44.6 °F 39.7 °F 44.6 °F 100% 29.59 in 2.0 mi SE 9.2 mph - 0.00 in Rain Light Rain
8:53 AM 45.0 °F 39.3 °F 44.1 °F 97% 29.60 in 2.5 mi SSE 11.5 mph - 0.00 in Rain Light Rain
9:02 AM 46.4 °F 41.1 °F 44.6 °F 93% 29.59 in 4.0 mi SSE 11.5 mph - 0.00 in   Overcast
9:30 AM 46.4 °F 40.7 °F 44.6 °F 93% 29.58 in 7.0 mi South 12.7 mph - 0.00 in   Overcast
9:53 AM 46.0 °F 40.6 °F 45.0 °F 96% 29.59 in 6.0 mi South 11.5 mph 18.4 mph 0.01 in Rain Light Rain
10:24 AM 46.4 °F 42.9 °F 44.6 °F 93% 29.58 in 2.5 mi SSW 6.9 mph - 0.01 in Rain Light Rain
10:34 AM 46.4 °F 41.9 °F 44.6 °F 93% 29.58 in 3.0 mi South 9.2 mph - 0.02 in Rain Light Rain
10:53 AM 46.9 °F - 46.0 °F 97% 29.58 in 3.0 mi South 9.2 mph - 0.02 in Rain Light Rain
11:01 AM 46.4 °F 41.9 °F 46.4 °F 100% 29.57 in 2.0 mi South 9.2 mph - 0.01 in Rain Light Rain
11:21 AM 44.6 °F 38.4 °F 42.8 °F 93% 29.58 in 3.0 mi SW 12.7 mph 21.9 mph 0.07 in Rain Rain
11:26 AM 44.6 °F 38.1 °F 42.8 °F 93% 29.59 in 6.0 mi SW 13.8 mph - 0.08 in Rain Rain
11:53 AM 45.0 °F 41.2 °F 43.0 °F 93% 29.59 in 10.0 mi SSW 6.9 mph - 0.10 in Rain Light Rain
12:39 PM 46.4 °F 42.9 °F 44.6 °F 93% 29.57 in 10.0 mi SW 6.9 mph - 0.00 in   Overcast
12:53 PM 46.9 °F - 43.0 °F 86% 29.58 in 10.0 mi SW 10.4 mph - 0.00 in   Overcast
1:01 PM 46.4 °F 41.9 °F 42.8 °F 87% 29.58 in 10.0 mi SW 9.2 mph - N/A   Overcast
1:14 PM 48.2 °F - 42.8 °F 82% 29.58 in 10.0 mi SW 6.9 mph - N/A   Overcast
1:53 PM 46.9 °F - 41.0 °F 80% 29.59 in 10.0 mi WSW 12.7 mph - 0.00 in   Overcast
2:53 PM 46.9 °F - 37.9 °F 71% 29.61 in 10.0 mi WSW 8.1 mph - N/A   Overcast
3:53 PM 46.9 °F - 37.0 °F 68% 29.62 in 10.0 mi West 15.0 mph 18.4 mph N/A   Overcast
4:53 PM 46.9 °F - 33.1 °F 59% 29.64 in 10.0 mi WSW 9.2 mph 17.3 mph N/A   Overcast
5:53 PM 45.0 °F 39.3 °F 32.0 °F 60% 29.65 in 10.0 mi West 11.5 mph - N/A   Mostly Cloudy
6:53 PM 44.1 °F 39.0 °F 34.0 °F 68% 29.68 in 10.0 mi West 9.2 mph 16.1 mph N/A   Mostly Cloudy
7:53 PM 43.0 °F 36.0 °F 34.0 °F 71% 29.69 in 10.0 mi West 13.8 mph 18.4 mph N/A   Overcast
8:53 PM 42.1 °F 34.9 °F 34.0 °F 73% 29.70 in 10.0 mi West 13.8 mph - N/A   Scattered Clouds
9:53 PM 39.9 °F 35.1 °F 33.1 °F 77% 29.72 in 10.0 mi WSW 6.9 mph - N/A   Clear
10:53 PM 39.9 °F 34.5 °F 33.1 °F 77% 29.73 in 10.0 mi West 8.1 mph - N/A   Mostly Cloudy
11:53 PM 39.9 °F 33.9 °F 33.1 °F 77% 29.74 in 10.0 mi West 9.2 mph - N/A   Mostly Cloudy